Theta_e
313 312 313 313 312 313 313 311 311 311 312 315 315 314 314 314 314 314 317 314 312 311 310 310 309 306 305 302 304 305 306 304 306 307 305 304 303 305 306 304 304 305 304 304 304 305 305
313 312 312 312 312 312 312 310 310 311 312 315 313 314 314 318 316 316 314 311 312 310 310 310 306 305 304 302 304 305 306 303 304 305 305 304 304 303 302 303 304 303 302 301 302 303 303
312 312 312 312 312 310 310 310 311 311 310 314 314 311 311 316 315 312 312 310 308 306 307 306 305 305 303 303 304 306 306 306 304 304 304 305 304 303 303 304 302 302 304 304 304 303 303
312 312 312 312 312 310 311 312 314 309 309 314 312 309 311 313 311 310 309 308 307 307 306 305 305 304 303 304 305 306 306 307 307 305 306 307 305 303 302 303 304 305 304 305 305 304 305
311 312 312 312 312 311 313 311 312 312 313 314 311 312 313 308 309 308 307 307 307 307 307 306 305 302 303 305 305 306 306 306 307 308 308 309 307 305 303 306 305 302 307 306 303 305 306
311 311 311 312 312 312 312 310 308 310 313 315 315 315 314 310 308 306 306 306 306 306 305 304 304 303 304 304 305 307 308 308 306 306 306 305 301 301 301 299 299 302 303 305 306 308 309
310 311 311 311 311 311 309 306 306 306 307 309 311 312 308 307 307 307 307 307 305 305 305 303 304 303 304 306 307 308 308 308 307 304 306 305 302 302 307 307 304 306 309 310 308 309 311
310 311 310 309 309 308 308 307 307 306 306 306 306 306 306 307 308 307 307 306 305 306 307 307 307 306 307 308 308 308 309 308 308 307 308 305 306 306 307 309 310 309 310 310 309 309 311
309 310 308 306 307 307 307 308 307 307 306 306 306 307 307 307 307 307 306 306 306 307 306 306 307 308 308 308 308 309 308 308 309 309 306 305 308 307 309 311 313 311 311 311 310 310 308
308 305 305 305 305 305 307 308 308 307 307 306 307 305 306 306 306 306 304 305 305 307 301 304 308 308 309 308 310 309 309 309 309 311 310 308 307 309 311 313 311 312 310 312 312 310 308
304 305 305 305 304 305 305 306 306 307 307 306 306 305 306 305 304 304 305 305 304 304 299 302 307 308 309 310 309 310 310 309 311 311 306 309 309 310 312 313 311 311 311 312 312 309 308
304 304 304 304 305 305 304 304 305 305 305 305 306 305 305 306 305 305 306 307 305 301 299 304 308 310 310 310 311 311 311 310 310 312 310 311 309 310 310 311 311 311 310 308 309 308 303
301 301 302 302 302 303 304 304 304 305 305 305 305 306 305 306 304 305 307 305 302 301 303 306 309 310 310 310 312 312 313 311 310 303 301 308 312 310 310 312 311 307 299 303 306 304 309
306 305 305 302 301 302 304 304 303 304 304 305 305 306 306 305 305 305 306 301 300 307 308 306 309 310 311 309 311 311 313 311 311 308 304 306 303 312 310 311 309 312 305 304 307 309 307
300 304 305 305 303 303 304 304 304 304 304 305 305 306 308 304 305 309 301 302 303 306 307 310 310 310 310 310 310 309 311 310 310 309 306 309 309 310 310 311 310 313 308 309 308 307 313
306 300 302 304 304 303 304 304 304 304 304 305 305 307 308 305 305 306 302 308 308 307 308 309 310 308 310 309 310 308 309 309 311 310 307 310 308 308 311 311 311 312 310 308 305 306 304
305 307 302 300 304 304 304 304 304 305 304 306 307 306 309 305 309 301 303 303 307 307 308 310 309 309 308 309 308 309 309 309 309 310 308 309 307 305 312 311 311 312 311 311 306 307 310
309 305 307 305 299 302 304 304 304 304 306 307 305 304 308 307 304 299 305 307 308 307 307 309 309 309 309 308 308 309 309 307 307 308 309 309 307 306 308 308 307 309 310 309 307 303 307
310 309 306 306 307 302 300 301 304 305 305 305 300 301 307 305 303 303 306 309 309 308 309 309 309 309 308 308 307 307 307 308 307 308 308 307 305 302 300 303 307 310 309 309 304 303 307
311 311 310 307 306 307 307 301 300 304 306 306 300 300 298 299 299 303 307 308 308 308 309 308 308 308 308 308 306 306 307 308 307 307 310 307 304 302 299 300 307 309 307 306 307 305 306
311 310 311 311 308 306 306 307 304 302 306 306 298 300 297 300 303 304 305 306 308 308 307 307 308 307 307 306 306 306 306 306 307 309 308 307 306 303 304 304 304 305 305 306 304 308 307
310 310 310 310 311 310 307 306 307 302 305 304 300 300 297 299 300 304 302 303 306 306 306 307 308 306 305 305 303 303 304 305 304 307 306 304 305 305 303 305 304 305 305 305 306 306 306
310 309 310 310 310 311 311 309 306 305 303 304 302 301 300 300 300 301 300 303 304 305 305 305 305 306 305 305 303 302 301 302 303 305 305 305 306 304 305 303 303 303 302 303 304 303 306
310 309 309 309 309 310 310 311 309 307 302 304 302 302 302 304 301 302 303 303 304 304 305 305 304 305 304 304 303 302 301 301 301 300 302 303 304 304 305 301 300 302 301 301 303 303 303
310 309 308 308 308 308 309 310 310 310 307 301 304 303 301 303 301 303 303 303 303 302 303 304 303 302 303 303 304 302 298 302 303 301 300 300 302 303 305 303 302 303 302 302 303 302 302
310 309 309 308 308 307 307 307 308 309 309 306 302 303 303 304 304 302 302 303 303 302 302 302 303 303 301 302 304 304 301 300 302 305 298 299 301 302 303 306 306 301 301 302 301 300 300
310 310 309 309 308 307 307 306 306 308 309 309 304 303 303 304 302 302 305 305 301 302 303 301 305 305 302 303 305 305 304 301 302 304 305 303 303 305 305 306 306 304 302 302 304 303 301
309 309 309 308 307 307 307 306 305 306 308 310 307 304 303 303 303 303 303 303 303 303 305 304 305 303 303 305 304 303 303 304 302 300 303 305 305 306 305 306 307 301 301 304 302 299 301
308 308 307 307 306 306 304 302 302 305 307 308 306 307 303 302 302 302 303 304 303 304 304 303 305 305 306 304 302 303 305 302 303 304 301 303 305 307 305 306 304 300 303 302 299 299 301
Wind_Speed
33 32 31 28 23 26 27 28 27 25 22 30 28 24 19 17 21 19 20 27 27 26 16 8 5 5 4 8 5 14 18 15 8 9 17 5 6 3 5 3 3 4 1 2 2 3 3
33 32 33 32 23 22 26 27 26 25 23 23 26 24 30 34 31 27 32 32 26 14 10 8 7 8 7 9 9 12 14 15 15 13 12 11 3 2 5 3 4 1 3 4 2 2 2
33 34 34 33 28 23 27 25 26 24 21 24 24 34 39 38 41 37 36 28 20 20 16 15 16 24 19 5 8 11 12 15 15 12 6 9 3 6 1 4 1 1 2 3 3 2 2
30 32 33 32 31 26 28 28 28 25 22 22 29 36 35 36 39 35 29 21 17 16 15 14 12 15 5 7 8 12 11 11 13 11 11 9 9 7 4 2 5 4 4 3 1 1 1
29 31 30 30 33 29 32 37 38 31 25 25 32 31 28 33 34 27 23 20 19 16 13 8 8 8 3 5 6 13 11 7 8 11 10 6 6 5 6 4 4 6 1 2 7 3 2
28 30 29 28 29 29 32 34 38 33 32 32 25 19 19 25 23 27 27 26 22 9 8 8 9 6 5 3 5 9 7 8 6 5 5 8 6 4 5 5 2 1 2 3 5 3 3
27 29 27 27 27 29 30 32 34 34 34 28 26 23 23 22 18 10 7 3 6 8 19 5 1 6 1 5 5 9 8 3 4 7 4 4 7 3 1 2 3 3 0 3 5 3 7
25 27 26 27 26 27 27 27 29 29 28 26 22 18 13 7 6 6 7 7 2 4 6 8 4 4 2 2 3 12 9 4 5 4 2 6 3 2 2 1 1 1 2 5 6 3 4
24 24 25 26 24 24 23 22 20 19 21 19 15 12 12 15 17 23 21 9 5 3 6 4 2 3 3 5 3 7 5 2 5 6 5 5 2 1 2 2 3 2 2 2 5 7 1
22 24 25 24 22 22 20 18 16 15 14 16 13 14 5 1 3 7 5 6 2 1 5 9 6 4 2 1 4 3 5 2 5 3 2 4 1 1 1 2 1 3 3 2 5 5 3
19 20 22 22 21 19 18 14 11 10 10 11 9 11 14 15 4 3 3 2 1 2 6 5 6 3 3 4 1 6 4 4 3 2 4 2 3 2 2 2 1 4 2 3 1 1 4
15 16 17 17 18 18 16 13 11 10 8 7 6 7 10 5 9 4 4 1 2 6 1 5 3 4 4 3 3 3 3 4 2 3 3 1 1 2 2 2 1 4 3 5 3 1 3
13 13 14 15 15 15 16 15 12 10 8 6 5 5 7 5 2 6 2 2 5 6 3 3 2 4 3 3 3 3 4 5 3 4 5 4 1 1 1 2 2 7 5 3 5 4 4
14 14 14 14 14 15 16 16 16 14 9 5 5 4 4 9 8 6 1 5 9 2 3 3 1 3 3 5 3 4 3 4 3 4 2 3 6 1 2 2 3 2 4 4 4 2 5
12 13 14 15 15 15 17 18 19 18 12 4 3 2 3 11 9 7 5 6 6 6 3 3 2 3 4 2 0 4 0 1 1 1 3 3 4 1 2 1 4 1 1 2 3 2 3
12 12 13 14 15 15 17 19 21 20 11 7 2 2 4 11 7 4 5 3 2 3 1 1 3 3 3 2 1 2 1 2 3 2 3 3 4 2 2 1 1 2 4 2 3 2 5
11 12 13 13 14 15 16 19 22 23 12 5 4 3 7 10 4 5 4 3 3 1 1 2 2 1 2 2 1 1 3 2 4 3 3 4 3 4 1 5 6 2 1 1 2 4 3
12 11 12 13 14 15 16 18 21 24 16 3 3 2 6 7 4 2 2 4 2 2 1 1 2 1 2 1 1 1 2 3 5 5 2 1 3 4 8 1 1 3 5 5 4 3 2
12 12 11 12 13 15 16 18 20 22 20 4 2 1 3 2 3 1 1 1 1 2 2 2 2 3 2 2 0 3 2 1 5 5 5 4 0 4 6 4 2 4 5 4 3 2 6
10 11 13 12 13 14 15 17 18 20 17 4 2 2 4 4 1 5 2 1 1 0 1 2 2 1 1 2 3 2 3 3 5 4 5 4 4 7 6 4 3 4 5 6 6 3 4
8 10 11 13 13 14 16 17 18 19 13 4 4 1 2 1 3 2 2 2 1 1 1 1 2 4 5 2 2 4 3 2 2 3 4 4 5 5 7 13 10 15 15 10 11 13 9
5 6 9 11 13 14 15 17 18 18 11 6 2 2 2 1 1 1 1 4 5 2 5 3 4 1 6 5 7 4 3 2 5 1 5 1 4 1 6 14 9 11 16 19 21 22 21
4 5 6 7 9 11 14 16 17 18 11 6 3 2 3 2 2 2 3 3 4 2 3 4 7 3 4 10 7 7 6 6 5 7 6 4 2 3 6 4 9 9 8 13 8 6 20
7 5 4 5 7 8 9 11 14 15 14 7 4 2 3 2 1 4 2 3 4 3 3 2 4 4 3 1 3 3 4 6 6 7 7 5 4 2 5 7 2 5 3 6 12 7 17
9 8 5 5 6 7 8 8 9 10 9 6 3 2 2 2 3 5 5 5 4 3 3 4 4 4 1 4 3 6 3 2 1 1 6 5 5 2 3 3 10 6 2 5 6 7 13
11 10 8 7 6 7 8 8 8 8 8 5 1 0 2 1 3 2 2 2 2 2 3 3 1 0 4 2 2 2 3 2 3 1 6 5 3 4 2 2 6 4 1 0 2 6 3
14 12 11 10 9 8 7 8 8 7 8 6 3 2 2 2 3 4 3 2 3 1 2 2 1 1 2 2 2 4 4 4 4 4 5 4 2 12 8 5 10 11 8 5 0 5 1
14 13 12 11 11 10 11 9 9 8 8 10 5 6 5 3 5 7 5 4 1 2 2 1 1 1 1 3 3 4 4 4 3 4 7 8 8 5 5 5 10 8 5 7 5 3 2
11 11 11 12 12 12 14 13 10 9 8 9 6 9 11 5 5 6 13 20 19 12 3 3 1 2 3 2 2 1 3 2 3 4 1 3 7 6 13 9 3 7 8 11 0 4 10
Wind_Direction
36 34 35 39 42 51 57 52 49 52 54 105 98 101 113 118 139 120 110 131 132 133 124 110 123 124 83 51 45 348 8 8 32 59 52 42 48 61 85 75 63 72 335 15 27 292 288
38 37 37 40 46 53 53 52 53 53 61 93 86 86 89 87 133 132 128 130 121 115 113 108 107 104 71 74 358 12 14 39 50 63 52 44 81 70 90 69 74 53 339 303 338 316 312
37 39 41 45 47 49 52 52 56 62 67 78 82 97 92 90 111 124 124 116 103 104 94 99 100 86 63 103 15 18 19 31 40 61 75 47 54 71 82 76 39 65 21 352 9 323 301
41 40 44 51 54 56 51 50 55 71 76 84 90 97 87 98 113 110 108 107 96 90 87 81 74 83 83 16 34 32 27 41 53 59 70 48 70 95 55 122 27 42 46 13 324 320 345
44 42 47 54 60 59 57 63 62 66 68 89 97 96 84 100 104 103 101 92 84 80 67 53 42 79 52 354 24 17 19 10 21 45 48 59 55 70 22 69 26 10 229 320 327 10 297
44 47 47 53 59 59 63 61 58 59 71 83 92 90 82 101 102 104 98 92 75 70 38 46 49 58 13 335 344 356 14 13 29 4 25 38 45 71 32 55 223 301 5 309 260 304 316
45 51 53 55 57 62 70 65 65 73 80 81 85 86 90 95 95 78 61 23 26 11 39 72 335 89 8 340 26 13 2 21 33 46 60 7 69 91 276 22 132 117 159 274 263 275 317
39 50 55 60 58 65 70 70 73 76 70 79 88 89 75 50 31 38 59 69 66 153 68 34 52 64 48 3 37 359 11 75 53 67 348 29 85 204 267 352 65 76 329 292 281 252 306
36 43 56 64 59 61 60 72 77 60 55 56 65 74 95 87 75 72 73 67 56 115 81 7 29 45 330 32 59 341 19 53 75 51 27 111 147 162 54 356 0 264 220 287 250 317 299
49 46 52 62 61 58 57 56 52 42 46 42 52 56 28 360 41 19 46 18 35 114 81 335 348 4 9 80 39 344 18 78 38 124 88 86 239 73 47 249 179 292 198 298 313 19 296
47 55 48 45 50 52 57 58 54 49 38 40 64 43 56 66 74 41 329 356 57 92 67 299 317 322 340 74 238 4 7 35 91 94 80 235 169 198 224 226 180 249 344 312 344 42 17
49 40 44 47 42 39 39 44 40 32 28 30 37 39 30 27 43 20 7 70 131 41 276 335 315 353 32 34 32 318 43 51 118 92 15 134 244 192 241 296 251 339 17 42 53 18 23
42 38 29 28 35 33 29 27 23 16 3 356 1 353 2 45 326 348 353 124 38 89 285 337 355 24 1 343 17 26 28 22 50 50 357 333 262 266 194 351 24 45 46 342 355 9 222
43 37 31 27 23 27 30 23 14 4 349 323 333 341 29 28 11 354 17 55 68 183 212 270 328 355 31 8 20 31 39 14 57 72 88 65 336 193 152 186 191 70 120 139 245 310 283
39 36 34 30 27 22 21 21 15 4 355 341 341 1 46 6 8 353 65 51 180 209 181 143 46 46 343 13 20 31 30 193 288 63 98 44 282 280 197 159 120 120 36 171 116 257 294
33 35 33 31 29 24 15 13 13 9 6 358 10 31 48 356 358 22 72 125 156 227 137 61 151 180 181 260 163 57 179 194 166 148 136 186 323 270 324 95 53 176 158 43 14 13 302
24 28 28 29 27 22 19 13 9 10 4 6 34 42 359 354 9 48 99 199 202 229 87 148 210 185 244 261 249 249 209 206 190 170 134 139 132 281 99 199 186 120 294 100 124 155 196
22 22 23 22 23 19 15 12 10 9 9 21 87 44 347 0 48 30 97 160 168 179 128 162 141 197 212 269 305 267 242 237 175 151 162 196 148 269 228 200 202 191 203 156 129 239 240
14 19 19 17 20 19 14 10 7 7 7 355 88 241 3 39 92 52 259 111 161 124 227 196 238 207 168 186 277 203 255 343 161 152 168 179 291 329 344 4 15 218 201 173 121 87 206
14 12 13 14 15 15 16 13 10 5 2 22 72 32 335 47 95 125 137 163 170 291 182 203 243 60 69 268 223 252 243 215 194 193 146 134 178 199 207 208 156 222 216 195 167 175 205
8 12 12 12 13 14 12 14 13 10 10 23 33 321 193 323 357 68 95 151 150 241 219 221 283 212 186 237 239 233 240 273 197 200 138 149 232 202 252 261 251 254 248 223 208 216 214
0 6 11 13 12 13 13 12 15 16 19 68 77 78 8 190 298 116 28 203 192 222 164 228 202 229 200 212 204 232 191 216 229 58 163 186 271 314 261 257 255 258 243 232 234 237 251
326 346 358 4 17 17 12 12 15 23 35 65 54 69 106 357 7 69 233 193 210 177 215 198 197 178 214 237 228 232 217 219 221 170 193 170 211 4 274 331 305 281 233 195 196 218 220
297 296 317 339 356 7 16 10 10 20 37 73 42 46 63 285 175 213 212 201 226 225 250 207 160 172 243 191 283 264 240 243 221 219 183 156 148 189 285 341 306 262 265 183 202 222 215
283 291 308 323 341 349 1 8 1 6 21 42 66 80 110 290 232 289 248 230 269 279 240 228 232 208 164 38 339 333 332 294 204 186 217 178 145 290 271 283 293 297 129 132 182 283 221
268 275 287 296 313 337 346 350 354 345 341 6 337 169 141 115 228 242 308 288 252 237 322 264 335 87 75 93 80 279 265 280 299 155 28 108 131 169 161 232 255 254 12 89 198 290 241
259 264 272 284 296 310 313 322 331 327 315 309 287 210 161 220 266 164 219 233 146 144 254 288 280 321 5 120 181 212 254 208 243 200 170 121 144 217 228 265 277 253 246 351 93 239 206
253 259 268 278 287 298 302 303 297 299 300 281 266 238 209 220 263 205 212 199 154 198 194 189 333 189 80 176 189 225 216 242 262 189 178 173 161 192 175 217 269 173 88 169 225 294 291
254 264 271 276 281 290 298 299 289 283 288 290 252 256 233 221 262 242 240 248 242 234 174 229 276 166 206 163 227 201 242 244 232 263 4 253 200 193 190 213 230 205 204 227 81 285 285